Regional Weather Roundup
Issued by NWS Wilmington, NC

Home | Current Version | Previous Version | Text Only | Print | Product List | Glossary On
Versions: 1 2 3 4 5 6 7 8 9 10 11 12 13 14 15 16 17 18 19 20 21 22 23 24 25 26 27 28 29 30 31 32 33 34 35 36 37 38 39 40 41 42 43 44 45 46 47 48 49 50
000
ASUS42 KILM 131813
RWRILM
RWRILM
REGIONAL HOURLY WEATHER ROUNDUP
NATIONAL WEATHER SERVICE WILMINGTON NC
100 PM EST WED DEC 13 2017

NOTE: "FAIR" INDICATES FEW OR NO CLOUDS BELOW 12,000 FEET WITH NO
SIGNIFICANT WEATHER AND/OR OBSTRUCTIONS TO VISIBILITY.

...............WFO WILMINGTON COUNTY WARNING AREA...............

......COASTAL NC AND SC COUNTIES......

CITY           SKY/WX    TMP DP  RH WIND       PRES   REMARKS
WILMINGTON     SUNNY     45   9  23 NW13      29.96F
N MYRTLE BEACH SUNNY     45  11  25 W6        29.97F
MYRTLE BEACH   SUNNY     46  13  26 W7        29.99F

......INLAND NC AND SC COUNTIES.......

CITY           SKY/WX    TMP DP  RH WIND       PRES   REMARKS
LUMBERTON      SUNNY     44  12  27 W8        29.96F
ELIZABETHTOWN  NOT AVBL
WHITEVILLE     SUNNY     43  10  26 W8        29.97F
FLORENCE       SUNNY     45  10  24 W10       29.98F
DARLINGTON     SUNNY     44  13  28 SW9       29.98F
KINGSTREE      FAIR      45   9  23 SW8       29.99F
HARTSVILLE     FAIR      45  10  24 CALM      29.95F
BENNETTSVILLE  FAIR      46  12  25 W3        29.96F
CONWAY         FAIR      43  16  33 W5        29.99F HAZE
GEORGETOWN     FAIR      45  12  26 CALM      30.00F
MARION         FAIR      43  10  26 SW6       29.98F

....................REST OF NORTH CAROLINA......................

.........EASTERN NC.........

CITY           SKY/WX    TMP DP  RH WIND       PRES   REMARKS
CAPE HATTERAS  SUNNY     38  15  39 W10G20    29.90F WCI  31
JACKSONVILLE   SUNNY     42   9  25 W9        29.95F
MOREHEAD CITY  SUNNY     43  11  27 W13G21    29.92F
KENANSVILLE    SUNNY     41   9  26 W10G16    29.94F
NEW BERN       SUNNY     40   9  28 W12G18    29.93F WCI  33
ELIZABETH CITY MOSUNNY   37  12  35 W14G26    29.88F WCI  28

.........CENTRAL NC.........

CITY           SKY/WX    TMP DP  RH WIND       PRES   REMARKS
RALEIGH DURHAM PTSUNNY   38   4  24 W12       29.92F WCI  30
ROCKY MOUNT    SUNNY     38   7  27 W14G20    29.92F WCI  30
ROANOKE RAPIDS NOT AVBL
FAYETTEVILLE   SUNNY     44   9  23 SW8       29.94F
HOFFMAN        SUNNY     43   8  23 W10       29.94F

.........WESTERN NC.........

CITY           SKY/WX    TMP DP  RH WIND       PRES   REMARKS
CHARLOTTE      MOSUNNY   43   9  24 SW10      29.92F
GREENSBORO     PTSUNNY   38   8  29 SW13      29.88F WCI  30
HICKORY        NOT AVBL
BOONE          NOT AVBL
ASHEVILLE      NOT AVBL

.....................REST OF SOUTH CAROLINA.....................

.........EASTERN SC.........

CITY           SKY/WX    TMP DP  RH WIND       PRES   REMARKS
CHARLESTON     SUNNY     49  18  29 N6        30.01F
BEAUFORT MCAS  SUNNY     49  21  33 SW7       30.04F
HILTON HEAD    SUNNY    N/A N/A N/A SW8       30.05F

.........CENTRAL SC.........

CITY           SKY/WX    TMP DP  RH WIND       PRES   REMARKS
COLUMBIA       SUNNY     48  15  26 SW8       29.98F
ORANGEBURG     SUNNY     45  15  30 W7        30.00F
SUMTER SHAW    SUNNY     47  11  23 W7        29.95F

.........WESTERN SC.........

CITY           SKY/WX    TMP DP  RH WIND       PRES   REMARKS
GREENVILLE     NOT AVBL
ROCK HILL      SUNNY     44   9  23 SW12G18   29.93F
ANDERSON       SUNNY     44  13  28 SW7       29.95F
CLEMSON        NOT AVBL
GREENWOOD      SUNNY     44  12  27 SW12      29.98F


...................COASTAL AND OFFSHORE REPORTS..................

................LOCAL PIERS AND NC RESERVE................


STATION/POSITION TIME  SKY/WX   TEMP    WIND        PRES    VSBY
                                AIR SEA DIR/SP/G
                 (UTC)          (F)     (DEG/KT/KT) (MB)    (MI)
JOHNY MRCER PIER 1736            42 56  300/ 13/ 17 1014.5F
NC RESRV MASNBRO 1645            44     290/  3     1015.0
OCEAN CREST PIER NOT AVBL
SPRINGMAID  PIER 1748                               1018.3F


................COASTAL AND OFFSHORE BUOYS................


STATION/POSITION TIME  SKY/WX   TEMP    WIND        PRES    VSBY
                                AIR SEA DIR/SP/G
                 (UTC)          (F)     (DEG/KT/KT) (MB)    (MI)
DIMNDSHOAL 41025 1750            38 75  300/ 19/ 27 1012.4F
WVE H/P(F/S)=  7/ 8 SWL H/P/D(F/S/D)=  2/330/15

CAPE LOOKOUT     1800                   290/ 13/ 16 1013.6F
ONSLOW BAY 41036 NOT AVBL
ONSLOW BAY 41064 1708            42 63  320/ 14/ 21 1014.9F
ONSLOW BAY 41159 1800               63                N/A
WVE H/P(F/S)=  5/ 5

MASNBO INL 41110 1759               57                N/A
WVE H/P(F/S)=  2/ 8

WILM HARBR 41108 1800               57                N/A
WVE H/P(F/S)=  3/ 8

27SE WRITB 41037 1708            43 65  310/ 17/ 25 1015.1F
FRYING PAN 41013 1800            45 62  310/ 14/ 17 1014.7
SUNST NRSH 41024 1708            42     310/  4/  8 1015.9F
CAPRS NRSH 41029 1708            42 56  290/  6/  8 1017.1F
EDISTO     41004 1800            45 74  320/  6/ 12 1016.2


..........OFFSHORE BUOYS BEYOND 100 NM OFFSHORE...........
.....IN A TRIANGLE---HAT TO BERMUDA TO BAHAMAS TO HAT.....


STATION/POSITION TIME  SKY/WX   TEMP    WIND        PRES    VSBY
                                AIR SEA DIR/SP/G
                 (UTC)          (F)     (DEG/KT/KT) (MB)    (MI)
150E HAT   41001 NOT AVBL
W BERMUDA  41048 1800            64 74  300/ 27/ 35 1009.8
ATLANTIC S 41049 1750            77 77  250/ 16/ 19 1012.3S
WVE H/P(F/S)=  7/ 6 SWL H/P/D(F/S/D)=  3/ 80/10

E BAHAMAS  41046 1750            77 80  320/ 14/ 16 1014.9F
WVE H/P(F/S)=  4/ 9 SWL H/P/D(F/S/D)=  3/ 50/ 9

NE BAHAMAS 41047 1750            72     320/ 17/ 23 1013.6F
WVE H/P(F/S)= 10/ 8 SWL H/P/D(F/S/D)=  3/330/11

120E CANVRL41010 NOT AVBL

END



USA.gov is the U.S. government's official web portal to all federal, state and local government web resources and services.